GFSFLT2_500_rhum_039.txt.gz
RH
88 97 94 95 96 96 96 95 80 65 59 55 58 67 88 98 91 87 94 96 86 88 80 74 55 23 30 36 22 10 7 6
83 96 95 94 96 95 82 76 57 60 69 74 78 93 94 83 98 95 95 96 93 87 72 35 20 36 29 22 15 8 7 7
96 96 96 95 81 95 99 71 71 58 72 92 87 83 79 88 95 96 95 95 92 81 28 24 38 32 25 14 8 7 7 7
94 96 98 96 96 96 98 98 92 100 89 94 85 89 95 99 96 96 96 96 96 94 56 41 31 22 15 10 9 8 7 8
87 79 93 93 95 93 96 94 95 92 92 97 96 96 98 93 96 93 96 96 96 86 42 27 24 17 11 10 9 7 8 10
57 60 74 55 62 77 76 95 82 79 87 98 94 93 92 93 96 97 98 100 97 86 41 27 27 14 11 10 9 9 11 9
45 59 49 57 66 69 66 99 73 63 65 94 84 90 84 98 94 98 100 96 95 61 26 28 18 12 11 9 9 23 15 8
44 47 45 63 56 64 74 97 73 69 83 98 80 90 94 100 96 99 98 95 73 45 30 21 14 12 11 10 20 29 17 9
44 49 45 50 63 72 81 95 90 86 97 95 88 98 99 98 100 98 90 74 45 27 22 16 13 12 12 27 44 34 14 11
44 56 55 53 64 81 86 90 100 98 98 98 94 96 98 97 90 80 66 47 25 22 19 15 14 14 13 45 46 44 21 14
64 62 77 84 92 91 86 61 56 73 81 87 93 91 85 58 41 33 34 26 21 19 16 15 14 14 17 45 40 45 44 55
42 58 48 28 29 31 35 37 46 50 56 62 54 52 54 50 24 21 20 19 18 17 16 15 14 18 26 37 43 45 50 53
23 25 28 56 25 12 11 12 23 48 67 80 85 77 69 86 30 26 20 19 19 18 17 17 18 31 33 52 73 75 68 57
19 19 19 21 24 15 15 17 15 13 13 32 74 89 98 74 62 21 24 19 18 17 16 17 23 35 54 80 72 72 71 61
9 8 8 9 10 10 11 11 11 12 14 22 47 64 96 64 62 25 18 16 18 23 25 26 35 42 69 85 74 70 63 56
10 11 14 13 12 12 12 20 21 24 23 29 40 36 32 52 75 68 85 83 81 75 66 66 67 67 79 99 97 80 62 71
12 13 16 20 23 18 12 14 28 36 32 26 29 48 40 30 70 51 90 85 88 87 91 97 90 95 98 63 94 89 58 64
20 22 35 24 14 17 22 23 42 47 34 37 40 48 69 95 85 96 94 86 87 94 96 98 95 80 78 88 88 69 61 60
37 41 40 32 25 21 17 16 43 73 35 50 59 74 93 96 96 94 72 86 95 83 50 49 62 46 38 21 17 17 21 59
37 42 46 37 28 30 27 24 20 27 32 72 93 98 98 91 78 82 66 84 74 62 50 42 26 11 11 14 18 28 41 44

GFSFLT2_500_rhum_042.txt.gz
RH
65 56 94 96 98 88 82 85 97 74 78 80 87 77 71 75 76 91 92 79 77 92 93 85 73 50 34 32 33 17 8 6
47 73 86 90 96 88 95 96 96 88 85 80 67 58 77 74 94 82 96 100 94 93 92 94 75 31 33 33 18 10 7 6
94 97 96 97 96 99 95 94 97 94 71 59 78 95 90 97 88 97 94 96 96 94 95 85 42 37 28 20 11 9 7 7
97 97 96 96 97 94 96 95 92 78 83 94 89 95 98 92 91 96 81 96 96 95 94 79 33 31 25 13 11 8 8 8
96 95 94 96 96 96 97 98 96 94 97 95 90 96 97 96 92 96 98 84 88 96 97 84 39 22 16 12 10 8 8 9
94 92 94 93 91 92 95 92 96 84 90 66 86 93 85 94 82 99 98 88 97 96 90 44 33 28 18 11 10 8 8 12
70 87 85 69 52 63 71 73 86 74 63 66 83 90 84 87 88 97 100 93 100 98 84 78 56 34 14 13 11 11 11 13
53 60 57 55 43 55 67 71 81 88 88 72 77 85 86 86 93 97 100 99 96 90 84 54 53 18 14 12 11 15 22 20
46 48 43 47 49 61 80 91 59 88 77 83 87 90 83 84 84 99 97 100 91 80 33 47 29 15 12 11 11 32 37 34
66 58 73 51 46 61 68 70 86 77 76 98 98 90 81 81 89 88 98 92 81 68 61 30 18 14 13 12 11 34 39 37
53 54 57 57 53 55 67 68 80 71 87 98 98 92 79 85 97 90 84 78 69 47 25 21 16 13 13 12 13 27 41 48
43 32 59 61 55 48 54 57 52 52 64 76 72 70 81 86 75 66 60 56 36 25 22 19 16 15 14 20 32 45 62 57
33 39 48 20 11 14 20 24 22 26 39 54 60 62 54 49 38 39 24 24 23 22 21 18 17 17 20 26 36 55 77 70
20 18 31 48 16 14 12 11 10 24 46 52 53 71 82 71 64 26 25 21 21 21 20 19 18 16 21 28 35 39 64 67
10 9 9 10 12 7 8 7 7 11 13 19 32 66 79 88 66 67 22 27 24 20 19 22 23 33 46 57 59 65 73 68
9 10 11 11 10 10 9 8 12 21 21 21 22 29 30 59 68 66 67 50 47 53 49 54 56 61 70 95 70 65 58 36
11 12 13 15 17 13 10 8 15 21 29 30 27 25 33 27 39 74 92 71 72 90 73 68 79 81 97 95 85 56 31 13
51 29 34 34 21 16 18 18 20 41 45 39 35 35 48 63 56 62 83 83 90 84 96 88 86 53 56 50 44 19 13 12
36 45 45 40 32 25 20 18 16 36 70 50 43 40 51 73 79 98 96 95 92 82 94 95 73 51 39 26 11 11 16 20
33 31 41 46 43 32 27 29 30 28 31 31 57 78 83 96 99 99 96 96 94 93 97 94 60 42 13 8 10 15 13 12

GFSFLT2_500_rhum_048.txt.gz
RH
82 78 65 74 84 86 93 95 96 94 89 86 83 59 59 67 80 87 81 80 81 76 90 90 87 75 89 93 63 51 48 35
98 98 77 88 97 95 96 98 95 84 88 94 73 75 60 77 84 88 87 83 81 85 92 93 97 92 92 54 74 44 30 25
99 88 95 97 97 95 96 97 96 96 90 80 99 77 70 94 94 97 89 74 83 90 96 96 100 97 92 96 51 28 28 13
96 97 95 93 81 90 96 96 97 97 94 94 92 70 96 98 99 85 72 94 97 96 100 94 100 95 95 90 46 29 18 10
97 94 89 92 81 94 91 97 97 96 97 92 88 96 98 96 81 76 87 90 99 95 95 96 100 99 100 88 50 26 15 10
94 97 98 92 95 96 97 96 98 97 96 90 97 98 96 90 81 79 88 100 100 96 90 94 100 99 80 43 40 22 14 10
85 97 96 86 95 97 97 96 97 95 96 96 97 96 93 95 96 96 92 100 100 97 93 95 100 100 94 44 19 15 13 19
75 96 97 94 97 92 96 96 97 96 96 98 89 81 88 90 96 99 95 96 100 99 97 99 93 78 49 42 20 43 45 20
52 95 97 96 95 96 95 96 96 97 97 95 88 99 88 82 99 98 100 98 94 91 96 100 99 86 56 37 63 61 22 16
47 71 99 96 94 98 97 91 95 96 97 84 86 94 94 94 98 99 97 92 97 96 98 100 100 81 63 73 46 22 28 54
98 62 85 88 95 97 82 70 84 94 94 92 92 96 92 94 99 100 98 100 98 100 98 98 85 88 87 79 30 19 22 17
93 67 74 86 68 85 87 74 71 94 95 95 86 90 99 100 99 98 98 98 98 97 96 95 93 76 95 44 22 20 17 16
81 84 69 99 92 100 98 78 100 100 93 95 96 100 100 100 98 100 92 94 98 97 97 93 92 74 53 30 20 18 16 14
38 27 62 79 83 98 94 80 89 99 96 99 97 97 100 100 96 92 95 93 95 93 99 95 81 61 35 24 21 18 15 13
16 36 14 20 40 42 43 57 59 44 53 55 54 66 65 73 76 70 83 83 82 78 62 48 37 29 25 21 19 18 15 17
11 11 30 16 12 14 13 18 25 27 38 41 50 58 61 60 59 51 42 38 34 32 30 29 28 24 20 18 18 19 40 66
9 9 10 10 10 10 11 12 11 13 16 22 45 59 68 80 82 74 74 73 58 57 26 29 26 24 24 24 43 68 73 68
12 11 13 16 19 19 14 12 18 24 29 30 30 32 42 48 64 81 89 87 80 75 67 54 74 89 83 91 82 78 73 68
46 47 41 33 35 32 26 22 22 24 26 35 36 35 36 36 35 38 49 49 54 56 68 96 92 92 100 100 96 81 86 77
28 29 31 45 54 48 40 35 31 28 24 25 30 52 46 40 38 36 63 78 80 82 93 97 100 100 98 98 99 100 96 92

GFSFLT2_500_rhum_051.txt.gz
RH
93 79 83 74 66 60 40 57 87 95 96 96 83 58 71 79 75 71 82 90 83 82 80 90 96 96 94 92 92 84 65 34
99 97 94 99 83 73 66 68 81 97 96 97 94 74 65 86 79 82 91 76 82 87 84 89 98 98 98 98 95 81 34 29
93 97 99 100 98 98 86 87 96 96 97 96 93 75 78 95 76 92 86 84 92 88 79 96 96 92 95 85 70 45 77 31
96 88 90 90 95 96 96 97 99 97 97 98 99 92 86 94 79 95 93 94 97 98 89 99 90 92 97 98 88 89 32 28
90 95 97 96 95 97 95 96 96 97 95 88 97 90 98 91 91 94 95 89 86 84 92 98 88 87 87 85 94 66 26 47
97 95 97 95 90 95 95 97 97 97 94 99 96 96 99 89 95 91 95 94 93 94 89 94 91 92 84 88 82 76 55 24
91 94 95 93 95 95 98 96 97 97 87 87 96 97 100 92 86 87 100 100 98 94 93 93 95 94 96 97 95 60 22 21
87 94 96 97 95 96 96 97 96 95 97 96 97 96 99 97 87 100 100 97 95 84 96 99 99 100 96 92 47 30 40 20
76 94 97 97 97 97 97 96 93 97 96 97 95 90 98 92 85 100 98 98 96 94 95 95 95 94 96 93 75 27 21 40
59 80 95 97 96 97 92 97 97 97 97 96 95 95 96 91 86 76 88 96 92 91 90 93 93 94 96 91 32 43 64 56
44 57 90 97 96 96 96 97 97 97 97 94 100 93 97 95 92 80 85 88 91 94 97 97 99 98 87 84 65 46 74 66
60 97 81 94 95 97 97 96 95 96 97 97 97 97 96 90 78 87 97 94 92 99 97 95 98 98 99 80 70 85 65 20
84 97 89 79 94 95 94 76 74 67 83 96 96 96 96 92 94 100 94 95 99 97 100 100 98 99 77 74 83 84 51 22
33 42 72 88 80 97 96 98 97 81 88 92 91 98 97 100 97 97 97 95 94 100 100 96 93 88 86 81 90 63 31 23
18 36 21 76 80 87 96 95 97 93 91 97 98 96 99 98 97 97 95 86 92 95 93 96 83 84 97 82 50 36 29 24
12 16 37 14 38 53 47 54 83 97 95 76 73 75 86 98 97 80 70 68 72 85 80 87 88 82 80 67 47 36 27 23
9 8 9 17 16 11 12 11 16 23 33 34 30 44 50 57 63 61 60 60 78 72 61 45 57 39 35 32 30 25 23 21
9 9 8 8 8 8 8 8 9 9 11 12 11 19 34 48 58 62 71 66 59 59 63 46 84 73 42 48 40 30 37 55
35 30 20 17 20 23 17 14 14 14 15 20 23 25 27 29 31 33 38 74 80 83 73 71 64 70 72 71 80 84 87 94
34 27 27 29 32 32 33 31 24 22 23 21 22 25 31 35 37 34 32 34 46 44 50 62 66 65 83 94 99 93 95 98

GFSFLT2_500_rhum_057.txt.gz
RH
54 76 88 79 70 88 97 95 58 51 58 54 90 97 97 95 95 95 83 91 70 59 71 69 73 73 70 76 75 72 76 79
60 66 80 96 64 57 96 97 96 87 82 68 86 91 96 95 94 84 92 90 83 72 72 75 83 78 80 74 72 70 71 77
76 88 86 99 82 63 92 97 97 91 95 86 87 82 86 98 89 86 94 92 87 70 78 79 81 69 66 70 71 67 72 74
69 85 87 87 75 67 78 94 94 93 92 90 98 94 96 97 92 89 96 94 86 81 76 84 78 74 67 74 72 68 71 67
75 94 93 82 76 85 96 97 96 88 98 81 79 97 88 96 96 95 92 85 83 83 81 79 75 67 66 78 77 74 71 63
68 96 94 81 75 95 95 93 97 94 95 96 92 96 96 97 95 94 93 88 82 87 77 75 59 51 63 79 78 77 80 81
45 89 93 88 89 94 82 94 96 95 97 96 96 95 97 95 96 94 90 90 81 79 79 80 72 60 73 79 81 84 84 70
42 52 93 97 96 95 94 96 96 97 96 98 98 97 96 96 95 88 89 82 86 77 86 84 68 69 76 79 79 85 79 73
48 44 62 90 92 84 75 87 89 98 96 100 97 92 97 97 88 91 92 81 85 84 93 81 78 75 72 77 78 88 76 71
41 43 51 91 94 94 90 81 97 96 96 97 93 94 96 96 93 90 88 80 89 85 91 88 84 79 79 85 89 89 88 80
49 44 54 96 95 94 94 88 97 96 97 97 92 95 96 96 95 91 89 84 96 93 95 89 83 82 82 90 90 93 91 95
49 61 64 94 96 95 96 98 97 97 96 97 95 96 96 97 97 96 96 94 97 98 98 84 73 77 83 90 95 96 97 93
32 29 58 91 94 96 96 96 97 97 96 97 96 96 96 95 95 97 96 96 96 97 86 86 89 87 91 98 100 97 100 95
13 24 24 60 78 80 95 97 96 94 93 96 97 96 97 96 95 96 97 95 96 96 94 92 95 91 85 86 88 94 99 97
6 13 26 27 75 98 90 95 96 94 96 96 96 97 95 94 95 97 96 96 96 97 95 89 85 80 84 86 84 90 88 83
7 9 12 21 41 80 93 93 96 95 95 95 91 88 94 96 97 96 93 90 90 95 89 90 78 76 73 80 75 75 90 91
7 7 6 9 23 17 33 56 47 77 87 87 86 90 91 95 94 90 89 93 95 88 74 61 57 63 67 76 77 76 74 72
15 13 8 6 6 12 13 11 21 15 30 64 94 96 88 68 60 75 82 91 86 74 77 60 54 66 80 84 84 90 84 89
18 16 16 16 12 11 8 6 7 7 8 10 22 30 32 38 33 48 54 67 70 57 72 75 81 79 76 71 73 77 76 71
22 19 18 19 18 17 19 22 18 11 10 8 7 8 10 12 17 26 37 40 45 45 44 52 48 64 72 72 80 74 75 78